Time,TemperatureF,DewpointF,PressureIn,WindDirection,WindDirectionDegrees,WindSpeedMPH,WindSpeedGustMPH,Humidity,HourlyPrecipIn,Conditions,Clouds,dailyrainin,SoftwareType,DateUTC
2013-04-01 00:00:00,54.6,42.0,29.97,East,101,2.0,6.0,62,0.00,,,0.00,weatherlink.com 1.10,2013-04-01 06:00:00,
2013-04-01 00:15:00,53.9,41.0,29.97,ESE,111,1.0,5.0,63,0.00,,,0.00,weatherlink.com 1.10,2013-04-01 06:15:00,
2013-04-01 00:30:00,53.7,42.0,29.97,ESE,113,3.0,4.0,64,0.00,,,0.00,weatherlink.com 1.10,2013-04-01 06:30:00,
2013-04-01 00:45:00,53.2,41.0,29.97,ESE,114,2.0,4.0,64,0.00,,,0.00,weatherlink.com 1.10,2013-04-01 06:45:00,
2013-04-01 01:00:00,52.9,41.0,29.97,ESE,116,4.0,7.0,65,0.00,,,0.00,weatherlink.com 1.10,2013-04-01 07:00:00,
2013-04-01 01:15:00,53.2,42.0,29.97,ESE,118,1.0,5.0,65,0.00,,,0.00,weatherlink.com 1.10,2013-04-01 07:15:00,
2013-04-01 01:30:00,53.3,42.0,29.98,ESE,117,0.0,5.0,65,0.00,,,0.00,weatherlink.com 1.10,2013-04-01 07:30:00,
2013-04-01 01:45:00,53.4,42.0,29.97,ESE,118,3.0,5.0,65,0.00,,,0.00,weatherlink.com 1.10,2013-04-01 07:45:00,
2013-04-01 02:00:00,53.4,42.0,29.98,ESE,120,0.0,7.0,65,0.00,,,0.00,weatherlink.com 1.10,2013-04-01 08:00:00,
2013-04-01 02:15:00,52.5,41.0,29.98,ESE,121,2.0,4.0,66,0.00,,,0.00,weatherlink.com 1.10,2013-04-01 08:15:00,
2013-04-01 02:31:00,52.0,41.0,29.98,ESE,121,0.0,4.0,67,0.00,,,0.00,weatherlink.com 1.10,2013-04-01 08:31:00,
2013-04-01 02:46:00,51.8,41.0,29.99,ESE,121,1.0,4.0,68,0.00,,,0.00,weatherlink.com 1.10,2013-04-01 08:46:00,
2013-04-01 03:01:00,52.1,41.0,29.98,ESE,121,0.0,4.0,67,0.00,,,0.00,weatherlink.com 1.10,2013-04-01 09:01:00,
2013-04-01 03:16:00,51.7,41.0,29.99,ESE,121,0.0,2.0,68,0.00,,,0.00,weatherlink.com 1.10,2013-04-01 09:16:00,
2013-04-01 03:31:00,50.8,41.0,29.99,ESE,121,0.0,3.0,70,0.00,,,0.00,weatherlink.com 1.10,2013-04-01 09:31:00,
2013-04-01 03:46:00,49.6,41.0,29.99,ESE,121,0.0,1.0,72,0.00,,,0.00,weatherlink.com 1.10,2013-04-01 09:46:00,
2013-04-01 04:01:00,49.0,41.0,29.99,ESE,122,0.0,0.0,73,0.00,,,0.00,weatherlink.com 1.10,2013-04-01 10:01:00,
2013-04-01 04:46:00,46.0,40.0,30.01,ESE,121,0.0,0.0,78,0.00,,,0.00,weatherlink.com 1.10,2013-04-01 10:46:00,
2013-04-01 05:01:00,45.3,39.0,30.02,ESE,121,0.0,0.0,78,0.00,,,0.00,weatherlink.com 1.10,2013-04-01 11:01:00,
2013-04-01 05:16:00,44.0,38.0,30.01,ESE,121,0.0,0.0,78,0.00,,,0.00,weatherlink.com 1.10,2013-04-01 11:16:00,
2013-04-01 05:31:00,44.1,38.0,30.01,ESE,122,0.0,0.0,80,0.00,,,0.00,weatherlink.com 1.10,2013-04-01 11:31:00,
2013-04-01 05:46:00,44.2,38.0,30.02,ESE,121,0.0,0.0,80,0.00,,,0.00,weatherlink.com 1.10,2013-04-01 11:46:00,
2013-04-01 06:01:00,44.1,38.0,30.02,ESE,121,0.0,0.0,80,0.00,,,0.00,weatherlink.com 1.10,2013-04-01 12:01:00,
2013-04-01 06:16:00,43.7,38.0,30.02,ESE,121,0.0,0.0,80,0.00,,,0.00,weatherlink.com 1.10,2013-04-01 12:16:00,
2013-04-01 06:31:00,43.2,38.0,30.02,ESE,122,0.0,0.0,81,0.00,,,0.00,weatherlink.com 1.10,2013-04-01 12:31:00,
2013-04-01 06:46:00,43.0,38.0,30.03,ESE,121,0.0,0.0,81,0.00,,,0.00,weatherlink.com 1.10,2013-04-01 12:46:00,
2013-04-01 07:16:00,44.0,39.0,30.04,ESE,121,0.0,0.0,81,0.00,,,0.00,weatherlink.com 1.10,2013-04-01 13:16:00,
2013-04-01 07:31:00,45.5,40.0,30.05,ESE,122,0.0,0.0,80,0.00,,,0.00,weatherlink.com 1.10,2013-04-01 13:31:00,
2013-04-01 07:46:00,47.8,41.0,30.05,ESE,121,0.0,0.0,78,0.00,,,0.00,weatherlink.com 1.10,2013-04-01 13:46:00,
2013-04-01 08:01:00,49.8,43.0,30.05,ESE,121,0.0,0.0,77,0.00,,,0.00,weatherlink.com 1.10,2013-04-01 14:01:00,
2013-04-01 08:16:00,53.2,44.0,30.05,ESE,121,1.0,2.0,71,0.00,,,0.00,weatherlink.com 1.10,2013-04-01 14:16:00,
2013-04-01 08:31:00,56.7,45.0,30.05,SE,135,3.0,5.0,65,0.00,,,0.00,weatherlink.com 1.10,2013-04-01 14:31:00,
2013-04-01 08:47:00,59.3,45.0,30.05,SSE,156,3.0,6.0,60,0.00,,,0.00,weatherlink.com 1.10,2013-04-01 14:47:00,
2013-04-01 09:01:00,61.7,46.0,30.05,South,175,5.0,6.0,56,0.00,,,0.00,weatherlink.com 1.10,2013-04-01 15:01:00,
2013-04-01 09:16:00,64.8,45.0,30.05,South,182,5.0,11.0,49,0.00,,,0.00,weatherlink.com 1.10,2013-04-01 15:16:00,
2013-04-01 09:32:00,66.5,45.0,30.04,South,191,7.0,12.0,47,0.00,,,0.00,weatherlink.com 1.10,2013-04-01 15:32:00,
2013-04-01 09:47:00,67.7,47.0,30.05,SW,216,7.0,15.0,48,0.00,,,0.00,weatherlink.com 1.10,2013-04-01 15:47:00,
2013-04-01 10:02:00,68.3,49.0,30.04,South,190,10.0,14.0,50,0.00,,,0.00,weatherlink.com 1.10,2013-04-01 16:02:00,
2013-04-01 10:17:00,69.0,49.0,30.04,SSW,194,8.0,14.0,50,0.00,,,0.00,weatherlink.com 1.10,2013-04-01 16:17:00,
2013-04-01 10:32:00,70.1,51.0,30.04,South,187,3.0,13.0,51,0.00,,,0.00,weatherlink.com 1.10,2013-04-01 16:32:00,
2013-04-01 10:47:00,70.0,51.0,30.03,South,185,4.0,12.0,51,0.00,,,0.00,weatherlink.com 1.10,2013-04-01 16:47:00,
2013-04-01 11:02:00,71.2,52.0,30.02,SE,139,12.0,13.0,50,0.00,,,0.00,weatherlink.com 1.10,2013-04-01 17:02:00,
2013-04-01 11:17:00,71.8,52.0,30.03,South,183,7.0,13.0,50,0.00,,,0.00,weatherlink.com 1.10,2013-04-01 17:17:00,
2013-04-01 11:32:00,72.8,52.0,30.03,ESE,118,5.0,12.0,49,0.00,,,0.00,weatherlink.com 1.10,2013-04-01 17:32:00,
2013-04-01 11:47:00,73.5,52.0,30.02,ESE,103,5.0,12.0,48,0.00,,,0.00,weatherlink.com 1.10,2013-04-01 17:47:00,
2013-04-01 12:02:00,73.5,52.0,30.03,SE,127,6.0,8.0,48,0.00,,,0.00,weatherlink.com 1.10,2013-04-01 18:02:00,
2013-04-01 12:17:00,74.2,52.0,30.02,ENE,68,4.0,10.0,46,0.00,,,0.00,weatherlink.com 1.10,2013-04-01 18:17:00,
2013-04-01 12:32:00,74.4,52.0,30.01,East,83,7.0,11.0,46,0.00,,,0.00,weatherlink.com 1.10,2013-04-01 18:32:00,
2013-04-01 12:47:00,74.7,52.0,30.00,NE,56,11.0,11.0,45,0.00,,,0.00,weatherlink.com 1.10,2013-04-01 18:47:00,
2013-04-01 13:02:00,75.4,51.0,29.99,ESE,110,3.0,12.0,43,0.00,,,0.00,weatherlink.com 1.10,2013-04-01 19:02:00,
2013-04-01 13:17:00,76.2,51.0,29.98,SSE,147,6.0,12.0,42,0.00,,,0.00,weatherlink.com 1.10,2013-04-01 19:17:00,
2013-04-01 13:32:00,76.9,51.0,29.97,ESE,123,6.0,13.0,41,0.00,,,0.00,weatherlink.com 1.10,2013-04-01 19:32:00,
2013-04-01 13:47:00,77.5,51.0,29.97,SSE,167,4.0,16.0,40,0.00,,,0.00,weatherlink.com 1.10,2013-04-01 19:47:00,
2013-04-01 14:02:00,77.5,51.0,29.96,ESE,110,4.0,13.0,40,0.00,,,0.00,weatherlink.com 1.10,2013-04-01 20:02:00,
2013-04-01 14:17:00,77.5,51.0,29.95,SE,134,8.0,11.0,40,0.00,,,0.00,weatherlink.com 1.10,2013-04-01 20:17:00,
2013-04-01 14:32:00,77.6,51.0,29.94,East,96,6.0,13.0,39,0.00,,,0.00,weatherlink.com 1.10,2013-04-01 20:32:00,
2013-04-01 14:47:00,78.2,51.0,29.94,SE,138,10.0,15.0,39,0.00,,,0.00,weatherlink.com 1.10,2013-04-01 20:47:00,
2013-04-01 15:02:00,76.9,50.0,29.93,SE,127,11.0,13.0,39,0.00,,,0.00,weatherlink.com 1.10,2013-04-01 21:02:00,
2013-04-01 15:17:00,76.0,51.0,29.91,SE,125,5.0,14.0,41,0.00,,,0.00,weatherlink.com 1.10,2013-04-01 21:17:00,
2013-04-01 15:32:00,75.6,50.0,29.90,SE,127,4.0,13.0,41,0.00,,,0.00,weatherlink.com 1.10,2013-04-01 21:32:00,
2013-04-01 15:50:00,74.9,50.0,29.90,East,88,6.0,13.0,42,0.00,,,0.00,weatherlink.com 1.10,2013-04-01 21:50:00,
2013-04-01 16:02:00,74.5,50.0,29.89,East,95,8.0,13.0,43,0.00,,,0.00,weatherlink.com 1.10,2013-04-01 22:02:00,
2013-04-01 16:17:00,74.0,50.0,29.89,East,95,10.0,16.0,43,0.00,,,0.00,weatherlink.com 1.10,2013-04-01 22:17:00,
2013-04-01 16:32:00,72.5,52.0,29.89,ENE,70,9.0,15.0,48,0.00,,,0.00,weatherlink.com 1.10,2013-04-01 22:32:00,
2013-04-01 17:02:00,67.3,56.0,29.93,NNE,31,4.0,5.0,68,0.01,,,0.01,weatherlink.com 1.10,2013-04-01 23:02:00,
2013-04-01 17:17:00,65.5,56.0,29.94,NE,46,1.0,5.0,72,0.02,,,0.02,weatherlink.com 1.10,2013-04-01 23:17:00,
2013-04-01 17:33:00,61.7,54.0,29.94,ENE,71,7.0,16.0,77,0.04,,,0.04,weatherlink.com 1.10,2013-04-01 23:33:00,
2013-04-01 17:48:00,60.1,54.0,29.97,NE,56,3.0,13.0,79,0.06,,,0.06,weatherlink.com 1.10,2013-04-01 23:48:00,
2013-04-01 18:03:00,59.4,54.0,29.99,NNE,17,7.0,12.0,82,0.07,,,0.08,weatherlink.com 1.10,2013-04-02 00:03:00,
2013-04-01 18:18:00,58.8,53.0,29.97,NE,40,7.0,12.0,81,0.07,,,0.09,weatherlink.com 1.10,2013-04-02 00:18:00,
2013-04-01 18:33:00,58.2,52.0,29.91,ENE,69,8.0,18.0,81,0.05,,,0.09,weatherlink.com 1.10,2013-04-02 00:33:00,
2013-04-01 18:48:00,58.4,52.0,29.93,ENE,73,11.0,16.0,79,0.03,,,0.09,weatherlink.com 1.10,2013-04-02 00:48:00,
2013-04-01 19:03:00,58.1,51.0,29.94,NE,52,13.0,15.0,78,0.01,,,0.09,weatherlink.com 1.10,2013-04-02 01:03:00,
2013-04-01 19:18:00,54.8,47.0,29.96,NE,40,19.0,24.0,75,0.01,,,0.10,weatherlink.com 1.10,2013-04-02 01:18:00,
2013-04-01 19:33:00,52.7,46.0,29.96,NNE,17,10.0,24.0,78,0.01,,,0.10,weatherlink.com 1.10,2013-04-02 01:33:00,
2013-04-01 19:48:00,51.5,45.0,29.95,ENE,57,21.0,28.0,79,0.01,,,0.10,weatherlink.com 1.10,2013-04-02 01:48:00,
2013-04-01 20:03:00,50.6,44.0,29.96,NE,41,14.0,28.0,78,0.01,,,0.10,weatherlink.com 1.10,2013-04-02 02:03:00,
2013-04-01 20:18:00,49.9,44.0,29.98,NE,42,10.0,19.0,80,0.00,,,0.10,weatherlink.com 1.10,2013-04-02 02:18:00,
2013-04-01 20:33:00,49.2,43.0,29.98,NNE,28,10.0,21.0,80,0.00,,,0.10,weatherlink.com 1.10,2013-04-02 02:33:00,
2013-04-01 20:48:00,48.3,43.0,30.00,NNE,25,12.0,20.0,81,0.00,,,0.10,weatherlink.com 1.10,2013-04-02 02:48:00,
2013-04-01 21:03:00,47.5,42.0,30.01,NE,52,13.0,19.0,82,0.00,,,0.10,weatherlink.com 1.10,2013-04-02 03:03:00,
2013-04-01 21:18:00,46.9,42.0,30.01,NE,39,7.0,21.0,82,0.00,,,0.10,weatherlink.com 1.10,2013-04-02 03:18:00,
2013-04-01 21:33:00,46.6,42.0,30.02,NNE,29,9.0,19.0,83,0.00,,,0.10,weatherlink.com 1.10,2013-04-02 03:33:00,
2013-04-01 21:48:00,46.3,41.0,30.03,NE,37,10.0,16.0,83,0.00,,,0.10,weatherlink.com 1.10,2013-04-02 03:48:00,
2013-04-01 22:03:00,46.1,41.0,30.03,NNE,16,10.0,15.0,83,0.00,,,0.10,weatherlink.com 1.10,2013-04-02 04:03:00,
2013-04-01 22:18:00,45.5,40.0,30.03,NNE,13,9.0,19.0,82,0.00,,,0.10,weatherlink.com 1.10,2013-04-02 04:18:00,
2013-04-01 22:33:00,44.9,40.0,30.04,NNE,26,14.0,19.0,84,0.00,,,0.10,weatherlink.com 1.10,2013-04-02 04:33:00,
2013-04-01 22:48:00,44.5,40.0,30.05,NNE,30,10.0,18.0,84,0.00,,,0.10,weatherlink.com 1.10,2013-04-02 04:48:00,
2013-04-01 23:03:00,44.0,40.0,30.04,NE,42,12.0,17.0,85,0.00,,,0.10,weatherlink.com 1.10,2013-04-02 05:03:00,
2013-04-01 23:18:00,43.6,39.0,30.04,NNE,32,8.0,17.0,85,0.00,,,0.00,weatherlink.com 1.10,2013-04-02 05:18:00,
2013-04-01 23:33:00,43.2,39.0,30.04,NE,45,13.0,19.0,86,0.00,,,0.00,weatherlink.com 1.10,2013-04-02 05:33:00,
2013-04-01 23:48:00,42.9,39.0,30.05,NE,39,7.0,17.0,85,0.00,,,0.00,weatherlink.com 1.10,2013-04-02 05:48:00,